OBJECT K (43189 NORAD) Tracking and Keplerian Element Data

This shows tracking and keplerian element data for the satellite.

Feedback or suggestion? Click here.




ElementValue
Catalog43189
NameOBJECT K
Epoch Orbit2344
Epoch Day198.77983349
Epoch Year2018
RAAN106.8562
Inclination97.723
Eccentricity0.0012516
Argument of Perigee53.9137
Mean Anonmoly306.3242
Mean Motion14.96474428
Decay Rate-5.3E-07
L11 43189U 18014K 18198.77983349 -.00000053 00000-0 48480-6 0 9995
L22 43189 97.7230 106.8562 0012516 53.9137 306.3242 14.96474428 23448

Live tracking and technical data element details for OBJECT K (NORAD 43189). OBJECT K can be tracked NOW for your location showing map with azimuth and elevation plus other details from your city location.

Track the satellite on the map from your city or location and see movement details for azimuth, elevation, latitude, longitude, range, height, and movement on the map or in text.







IsCatalogInMostPopularTable: catalog: 43189, numindb: 69
Update: records affected: 1



GetName: 43189 OBJECT K

Hit Count: updated at: Fri, 20 Jul 2018 20:25:39 GMT